[[{"header":{"parameterUnit":"m.s-1","parameterCategory":1,"la1":30.2991,"la2":30.254,"lo1":-89.0895,"lo2":-89.0444,"dy":0.0017,"dx":0.0017,"nx":28,"ny":28,"refTime":"2024-03-14T09:00:00:Z","depth":0,"parameterNumber":2,"parameterNumberName":"U-component_of_WINDS"},"data":[0,0,0,0,0,0,0,0,0,0,0,0,0,0,0,0,0,0,0,0,0,0,0,0,0,0,0,0,0,0,0,0,0,0,0,0,0,0,0,0,0,0,0,0,0,0,0,0,0,0,0,0,0,0,0,0,0,0,-6.7624,-6.7624,0,-6.7673,-6.7674,-6.7675,-6.7581,-6.7578,-6.7575,-6.7572,-6.7619,-6.7623,-6.7627,0,0,0,0,0,0,0,0,0,0,0,0,0,-6.7446,-6.7449,-6.7624,-6.7624,-6.7625,-6.7673,-6.7674,-6.7675,-6.7582,-6.7578,-6.7574,-6.7571,-6.7617,-6.7622,-6.7627,0,0,0,0,0,0,0,0,0,0,0,0,0,-6.7512,-6.7451,-6.7623,-6.7584,-6.7582,-6.7673,-6.7674,-6.7675,-6.7583,-6.7578,-6.7573,-6.7569,-6.7616,-6.7622,-6.7628,-6.7758,0,0,-6.7647,-6.7649,0,0,0,0,0,0,0,0,-6.7508,-6.7518,-6.759,-6.7587,-6.7584,-6.7617,-6.7628,-6.7703,-6.7584,-6.7582,-6.7572,-6.7567,-6.7621,-6.7627,-6.7646,-6.7761,-6.7762,-6.7647,-6.7651,-6.7654,-6.7655,0,0,0,0,0,0,0,-6.7504,-6.7516,-6.7643,-6.7591,-6.7587,-6.7564,-6.7568,-6.7642,-6.7627,-6.7582,-6.7575,-6.7583,-6.7619,-6.764,-6.7647,-6.7763,-6.7647,-6.7652,-6.7656,-6.7659,-6.7988,-6.7993,0,0,0,0,0,0,-6.7504,-6.7513,-6.7641,-6.7645,-6.7534,-6.7571,-6.7576,-6.7611,-6.7626,-6.7624,-6.7587,-6.7578,-6.7632,-6.7639,-6.7648,-6.7801,-6.7654,-6.7659,-6.7663,-6.7983,-6.799,-6.7995,0,0,0,0,0,0,-6.7501,-6.7517,-6.7639,-6.7577,-6.7591,-6.7579,-6.7619,-6.7614,-6.7635,-6.763,-6.7626,-6.7611,-6.7629,-6.7639,-6.7732,-6.7801,-6.7662,-6.7668,-6.7977,-6.7985,-6.7992,-6.8109,0,0,0,0,0,0,-6.7496,-6.7516,-6.7566,-6.7579,-6.7595,-6.7724,-6.7623,-6.7618,-6.7647,-6.7636,-6.7652,-6.765,-6.7626,-6.7723,-6.7738,-6.7807,-6.7672,-6.7971,-6.7981,-6.799,-6.8099,-6.812,-6.8138,0,0,0,0,0,-6.749,-6.7595,-6.7569,-6.7585,-6.7656,-6.7728,-6.7737,-6.7708,-6.7653,-6.7702,-6.7699,-6.7649,-6.7793,-6.7734,-6.775,-6.7822,-6.7966,-6.7978,-6.7989,-6.809,-6.8116,-6.8137,0,0,0,0,0,0,-6.7588,-6.7596,-6.7567,-6.7679,-6.7704,-6.7712,-6.7773,-6.7736,-6.7775,-6.7763,-6.7726,-6.773,-6.7831,-6.7836,-6.777,-6.795,-6.787,-6.7885,-6.7942,-6.7966,-6.7985,-6.7979,-6.7678,0,0,0,0,0,-6.7623,-6.7682,-6.7685,-6.7785,-6.7799,-6.7785,-6.7815,-6.7791,-6.7814,-6.7824,-6.7827,-6.785,-6.7901,-6.7934,-6.798,-6.8102,-6.8103,-6.8159,-6.8179,-6.8195,-6.8207,-6.8271,-6.8296,-6.8032,-6.8032,-6.8032,0,0,-6.7695,-6.7707,-6.7745,-6.7805,-6.7821,-6.7881,-6.7793,-6.7861,-6.7905,-6.7833,-6.7921,-6.7926,-6.7949,-6.8057,-6.8105,-6.8064,-6.8281,-6.8209,-6.8222,-6.8225,-6.8286,-6.831,-6.8333,-6.804,-6.8039,-6.8038,0,0,-6.7856,-6.7872,-6.7957,-6.7976,-6.8003,-6.7994,-6.8015,-6.803,-6.803,-6.8119,-6.8067,-6.8119,-6.8207,-6.8226,-6.8247,-6.8422,-6.8377,-6.8438,-6.8537,-6.8601,-6.8622,-6.864,-6.87,-6.8723,-6.8451,-6.8452,-6.8452,0,-6.7941,-6.8031,-6.8004,-6.8076,-6.8103,-6.8046,-6.813,-6.815,-6.819,-6.821,-6.8166,-6.8276,-6.8288,-6.8399,-6.8443,-6.8463,-6.8484,-6.8433,-6.8621,-6.8639,-6.8656,-6.8713,-6.8736,-6.8459,-6.8458,-6.8457,-6.8456,0,-6.8134,-6.8198,-6.8263,-6.8306,-6.8341,-6.8419,-6.8403,-6.8442,-6.8418,-6.8414,-6.8505,-6.8519,-6.8567,-6.8593,-6.8568,-6.8702,-6.8676,-6.8628,-6.8546,-6.8688,-6.8741,-6.8763,-6.8469,-6.8466,-6.8464,-6.8462,0,0,-6.8352,-6.8383,-6.8407,-6.8426,-6.8455,-6.8503,-6.858,-6.8629,-6.8662,-6.8694,-6.8756,-6.8834,-6.879,-6.8815,-6.8793,-6.885,-6.8986,-6.8794,-6.8794,-6.8827,-6.9133,-6.9166,-6.9192,-6.8959,-6.8963,-6.8966,-6.913,0,-6.8511,-6.8643,-6.8623,-6.875,-6.8809,-6.8758,-6.8824,-6.8849,-6.8848,-6.8897,-6.8896,-6.8951,-6.889,-6.8905,-6.8959,-6.8958,-6.9046,-6.8946,-6.9014,-6.9017,-6.9006,-6.922,-6.9255,-6.9409,-6.9151,-6.9154,-6.9157,0,-6.8711,-6.8753,-6.8887,-6.8908,-6.8932,-6.8992,-6.9037,-6.9086,-6.9113,-6.9108,-6.9139,-6.9108,-6.9184,-6.9106,-6.9209,-6.9142,-6.917,-6.9174,-6.918,-6.9181,-6.9092,-6.9225,-6.9457,-6.9479,-6.919,-6.9187,-6.9185,0,-6.8854,-6.8944,-6.9036,-6.9055,-6.9082,-6.9126,-6.9139,-6.9163,-6.9194,-6.9234,-6.9254,-6.9302,-6.9327,-6.9365,-6.9348,-6.9292,-6.9455,-6.9375,-6.9451,-6.9452,-6.9483,-6.9481,-6.972,-6.9508,-6.9508,-6.9507,-6.9507,0,-6.9031,-6.9114,-6.9101,-6.9157,-6.9249,-6.9227,-6.9318,-6.9325,-6.9348,-6.9404,-6.9363,-6.9417,-6.9393,-6.9445,-6.9432,-6.952,-6.9532,-6.9529,-6.9524,-6.9531,-6.9531,-6.9544,-6.9532,-6.9513,-6.9512,-6.9511,-6.951,0,-6.9203,-6.9198,-6.9294,-6.9315,-6.9322,-6.9389,-6.9406,-6.9458,-6.9457,-6.9529,-6.9545,-6.9542,-6.9601,-6.959,-6.9654,-6.9646,-6.9755,-6.9739,-6.9746,-6.974,-6.9817,-6.9809,-7.007,-7.0102,-6.9873,-6.9875,-6.9877,0,-6.9314,-6.9377,-6.9406,-6.9442,-6.9459,-6.9517,-6.9551,-6.9533,-6.9569,-6.9608,-6.9656,-6.9712,-6.9756,-6.9853,-6.9856,-6.9906,-6.9888,-6.9977,-6.9895,-6.99,-6.9886,-6.9881,-6.9887,-6.9991,-6.9994,-6.9996,-6.9998,0,-6.951,-6.9506,-6.9556,-6.9608,-6.9649,-6.9688,-6.9722,-6.9754,-6.9739,-6.9782,-6.9844,-6.9878,-6.9947,-7.0003,-7.005,-7.0063,-7.0028,-7.0025,-7.0044,-7.0049,-7.005,-7.0048,-6.9786,-7.0017,-7.0015,-7.0014,-7.0013,-7.0012,-6.9653,-6.9707,-6.9737,-6.9795,-6.9821,-6.9855,-6.9906,-6.9913,-6.9964,-7.0019,-7.0006,-7.0076,-7.0104,-7.0165,-7.0184,-7.0237,-7.0204,-7.0233,-7.024,-7.0247,-7.0255,-7.0046,-7.0246,-7.0246,-7.0245,-7.0245,-7.0245,0,-6.9845,-6.9863,-6.9917,-6.9968,-7.0015,-6.9983,-7.002,-7.006,-7.0123,-7.0153,-7.0199,-7.027,-7.0326,-7.0336,-7.0389,-7.043,-7.0415,-7.0444,-7.0438,-7.0442,-7.0283,-7.0259,-7.0455,-7.0455,-7.0455,-7.0455,-7.0455,-7.0455,-6.9949,-7.004,-7.004,-7.0143,-7.016,-7.0229,-7.0253,-7.0285,-7.031,-7.0392,-7.0439,-7.0446,-7.0469,-7.0524,-7.0573,-7.0575,-7.0594,-7.0629,-7.0624,-7.0474,-7.0453,-7.0433,-7.041,-7.0635,-7.0635,-7.0778,-7.0779,-7.078]},{"header":{"parameterUnit":"m.s-1","parameterCategory":1,"la1":30.2991,"la2":30.254,"lo1":-89.0895,"lo2":-89.0444,"dy":0.0017,"dx":0.0017,"nx":28,"ny":28,"refTime":"2024-03-14T09:00:00:Z","depth":0,"parameterNumber":3,"parameterNumberName":"V-component_of_WINDS"},"data":[0,0,0,0,0,0,0,0,0,0,0,0,0,0,0,0,0,0,0,0,0,0,0,0,0,0,0,0,0,0,0,0,0,0,0,0,0,0,0,0,0,0,0,0,0,0,0,0,0,0,0,0,0,0,0,0,0,0,1.9009,1.9009,0,1.9023,1.9023,1.9024,1.9053,1.9053,1.9054,1.9054,1.9064,1.9064,1.9063,0,0,0,0,0,0,0,0,0,0,0,0,0,1.9003,1.9003,1.9009,1.9009,1.9009,1.9023,1.9023,1.9024,1.9052,1.9053,1.9054,1.9055,1.9064,1.9064,1.9063,0,0,0,0,0,0,0,0,0,0,0,0,0,1.901,1.9003,1.9009,1.9025,1.9027,1.9023,1.9023,1.9024,1.9052,1.9053,1.9054,1.9055,1.9064,1.9064,1.9063,1.9043,0,0,1.9062,1.9062,0,0,0,0,0,0,0,0,1.901,1.901,1.9023,1.9024,1.9026,1.9037,1.9025,1.903,1.9052,1.9042,1.9054,1.9055,1.9054,1.9054,1.9055,1.9043,1.9044,1.9062,1.9062,1.9061,1.9061,0,0,0,0,0,0,0,1.9009,1.901,1.9014,1.9023,1.9025,1.9031,1.9033,1.9026,1.9043,1.9043,1.9046,1.9047,1.9055,1.9055,1.9055,1.9044,1.9062,1.9061,1.9061,1.9061,1.902,1.9019,0,0,0,0,0,0,1.9007,1.9009,1.9014,1.9015,1.902,1.903,1.9033,1.9032,1.9043,1.9046,1.9046,1.9048,1.9056,1.9056,1.9056,1.9035,1.9061,1.9061,1.9061,1.902,1.9019,1.9018,0,0,0,0,0,0,1.9006,1.9007,1.9013,1.9013,1.9014,1.903,1.9029,1.9032,1.9033,1.9045,1.9048,1.9044,1.9056,1.9056,1.9047,1.9036,1.9061,1.906,1.9021,1.902,1.9019,1.8991,0,0,0,0,0,0,1.9006,1.9007,1.8999,1.9012,1.9014,1.9005,1.9028,1.9032,1.9033,1.9036,1.9044,1.9046,1.9057,1.9048,1.9047,1.9035,1.906,1.9022,1.9021,1.9019,1.8993,1.8989,1.8986,0,0,0,0,0,1.9006,1.8989,1.8999,1.8999,1.9005,1.9004,1.9005,1.9019,1.9032,1.9024,1.9033,1.9046,1.9037,1.9046,1.9045,1.9034,1.9023,1.9021,1.9019,1.8995,1.899,1.8986,0,0,0,0,0,0,1.8971,1.8991,1.9002,1.8989,1.8995,1.9009,1.9,1.9013,1.9014,1.9017,1.9033,1.9035,1.9024,1.9028,1.9038,1.9016,1.9032,1.903,1.9014,1.9009,1.9006,1.9005,1.906,0,0,0,0,0,1.8963,1.8961,1.8978,1.8965,1.8968,1.8984,1.8983,1.8995,1.9001,1.9003,1.901,1.9014,1.9013,1.9011,1.9011,1.8994,1.8997,1.8986,1.8983,1.8979,1.8977,1.8971,1.8967,1.9012,1.9012,1.9012,0,0,1.8944,1.8955,1.8952,1.8959,1.8964,1.8962,1.8985,1.8981,1.8979,1.9001,1.8994,1.9,1.9006,1.8994,1.8989,1.8997,1.8966,1.8977,1.8974,1.8974,1.8969,1.8965,1.8961,1.9011,1.9011,1.9011,0,0,1.8909,1.8916,1.8908,1.8915,1.8925,1.8936,1.8934,1.8947,1.8952,1.8946,1.8963,1.8961,1.8957,1.8962,1.8964,1.8935,1.8947,1.8934,1.8914,1.8908,1.8904,1.8901,1.8892,1.8888,1.8931,1.8931,1.8931,0,1.8884,1.8882,1.8901,1.8897,1.89,1.8923,1.8915,1.892,1.8928,1.8929,1.8939,1.8938,1.8943,1.8933,1.8927,1.8927,1.8925,1.8932,1.8904,1.8901,1.8898,1.889,1.8886,1.893,1.893,1.893,1.893,0,1.8852,1.8851,1.8843,1.8854,1.8855,1.8849,1.8867,1.8866,1.8878,1.8888,1.8882,1.889,1.8893,1.8891,1.8901,1.8884,1.8889,1.8901,1.8917,1.8892,1.8884,1.8881,1.8928,1.8928,1.8929,1.8929,0,0,1.8793,1.8818,1.8814,1.8821,1.8835,1.8834,1.8829,1.8835,1.8834,1.884,1.8837,1.8835,1.8848,1.885,1.8861,1.8856,1.8834,1.8868,1.8869,1.8863,1.8817,1.8809,1.8805,1.8843,1.8842,1.8842,1.8817,0,1.8762,1.8757,1.8776,1.8765,1.8766,1.8789,1.8785,1.8793,1.8803,1.8804,1.8815,1.8814,1.883,1.8832,1.8828,1.8838,1.8825,1.884,1.884,1.884,1.8838,1.88,1.8791,1.8767,1.8814,1.8814,1.8813,0,1.8724,1.8731,1.8722,1.874,1.8741,1.8737,1.8745,1.8745,1.8756,1.8763,1.8768,1.8782,1.8779,1.8795,1.8791,1.8801,1.8802,1.8807,1.8807,1.8807,1.8825,1.88,1.8759,1.8756,1.8809,1.8809,1.8809,0,1.8684,1.8691,1.8688,1.8692,1.8712,1.871,1.8718,1.8729,1.8732,1.8738,1.874,1.8745,1.8748,1.8751,1.8766,1.8777,1.8761,1.8778,1.8768,1.8767,1.8763,1.8763,1.8722,1.8763,1.8763,1.8763,1.8763,0,1.8647,1.8641,1.867,1.8668,1.8662,1.8684,1.8677,1.8687,1.8698,1.8698,1.8717,1.8716,1.8737,1.8738,1.875,1.8746,1.8747,1.8753,1.8756,1.8751,1.8751,1.8752,1.8754,1.8762,1.8762,1.8762,1.8762,0,1.8601,1.8621,1.8619,1.8639,1.8645,1.8639,1.8657,1.8656,1.8668,1.8668,1.8669,1.8688,1.8691,1.8708,1.8713,1.8722,1.8714,1.872,1.8711,1.8713,1.8702,1.8703,1.8661,1.8657,1.87,1.8699,1.8699,0,1.8577,1.8573,1.8595,1.8598,1.8606,1.8609,1.8613,1.8634,1.8638,1.8651,1.8648,1.8654,1.8659,1.8663,1.8677,1.8682,1.8689,1.8674,1.869,1.8686,1.869,1.869,1.8691,1.867,1.867,1.8669,1.8669,0,1.8532,1.8543,1.8549,1.8559,1.8564,1.8572,1.8582,1.8582,1.8606,1.8609,1.8614,1.8619,1.8627,1.8632,1.864,1.8648,1.8662,1.8664,1.8662,1.8657,1.8653,1.8657,1.8702,1.8665,1.8665,1.8665,1.8666,1.8666,1.8496,1.8495,1.8512,1.8518,1.8529,1.8538,1.8539,1.8553,1.8558,1.8568,1.858,1.8584,1.8597,1.861,1.8617,1.862,1.8628,1.8624,1.8623,1.8622,1.8621,1.8653,1.8621,1.8621,1.8621,1.8621,1.8621,0,1.8454,1.8466,1.8472,1.8487,1.8493,1.8509,1.8521,1.8524,1.8528,1.8539,1.8546,1.8552,1.8558,1.8574,1.8582,1.8581,1.8588,1.8582,1.8583,1.8585,1.8612,1.8614,1.8577,1.8577,1.8577,1.8577,1.8577,1.8577,1.8432,1.8432,1.8445,1.8451,1.8463,1.8469,1.8475,1.8483,1.8493,1.8501,1.8507,1.8518,1.8531,1.8541,1.8547,1.8552,1.8554,1.8546,1.8553,1.8578,1.8582,1.8586,1.8588,1.8546,1.8546,1.8525,1.8525,1.8524]}]]